Stations météo

réclame
Mon MeteoGroup
Yeovilton, Grande-Bretagne (3853): Température de l'air & dewpoint: 13.07.2018 18:00:00 - 19.07.2018 18:00:00 (BST)Yeovilton, Grande-Bretagne (3853): Température de l'air -20cm & Température de l'air -100cm: 13.07.2018 18:00:00 - 19.07.2018 18:00:00 (BST)Yeovilton, Grande-Bretagne (3853): Vitesse du vent: 13.07.2018 18:00:00 - 19.07.2018 18:00:00 (BST)Yeovilton, Grande-Bretagne (3853): Direction du vent: 13.07.2018 18:00:00 - 19.07.2018 18:00:00 (BST)Yeovilton, Grande-Bretagne (3853): reduced air pressure: 13.07.2018 18:00:00 - 19.07.2018 18:00:00 (BST)Yeovilton, Grande-Bretagne (3853): visibility: 13.07.2018 18:00:00 - 19.07.2018 18:00:00 (BST)Yeovilton, Grande-Bretagne (3853): Ensoleillement: 13.07.2018 18:00:00 - 19.07.2018 18:00:00 (BST)Yeovilton, Grande-Bretagne (3853): Quantités de précipitations: 13.07.2018 18:00:00 - 19.07.2018 18:00:00 (BST)
Date & Time tt [°C] td [°C] tt -20cm [°C] tt -100cm [°C] ff [km/h] ff [knt] dd ppp [hPa] vv [km] sd [min] rr [mm]
19.07.2018 18:00:00 24,2 13,1 - - 13 7 WNW 1016,8 10 0 0,0
19.07.2018 17:00:00 24,9 11,9 - - 9 5 NNW 1017,0 10 6 0,0
19.07.2018 16:00:00 25,5 11,9 - - 5 3 S 1017,4 10 18 0,0
19.07.2018 15:00:00 24,8 11,6 - - 9 5 W 1017,8 10 48 0,0
19.07.2018 14:00:00 23,9 11,8 - - 8 4 WNW 1018,2 10 54 0,0
19.07.2018 13:00:00 24,1 12,1 - - 5 3 NNW 1018,8 10 60 0,0
19.07.2018 12:00:00 22,7 11,8 - - 8 4 NNW 1019,0 10 60 0,0
19.07.2018 11:00:00 20,6 12,7 - - 5 3 WNW 1019,3 10 24 0,0
19.07.2018 10:00:00 18,1 12,5 19,7 19,0 4 2 NW 1019,7 20 0 0,0
19.07.2018 09:00:00 15,8 11,6 - - 5 3 W 1019,8 10 0 0,0
19.07.2018 08:00:00 14,8 11,5 - - 2 1 SSW 1019,8 10 24 0,0
19.07.2018 07:00:00 12,0 10,9 - - 5 3 SSW 1019,8 20 0 0,0
19.07.2018 06:00:00 11,0 10,0 - - 2 1 ESE 1019,8 10 0 0,0
19.07.2018 05:00:00 11,1 10,1 - - 2 1 W 1019,8 10 0 0,0
19.07.2018 04:00:00 10,9 9,8 - - 5 3 ESE 1019,7 10 0 0,0
19.07.2018 03:00:00 11,7 10,1 - - 2 1 S 1019,8 10 0 0,0
19.07.2018 02:00:00 12,2 10,7 - - 4 2 SE 1019,8 10 0 0,0
19.07.2018 01:00:00 14,1 11,4 - - 4 2 WSW 1019,8 10 - 0,0
19.07.2018 00:00:00 15,6 11,8 - - 4 2 WNW 1019,6 10 0 0,0
18.07.2018 23:00:00 17,2 12,0 - - 4 2 WNW 1019,5 10 0 0,0
18.07.2018 22:00:00 18,3 11,8 - - 8 4 NW 1019,4 10 0 0,0
18.07.2018 21:00:00 19,2 12,8 - - 11 6 NNW 1019,0 10 0 0,0
18.07.2018 20:00:00 20,0 12,7 - - 15 8 NW 1018,9 10 0 0,0
18.07.2018 19:00:00 21,4 10,8 - - 11 6 WSW 1018,7 10 0 0,0
18.07.2018 18:00:00 22,7 8,8 - - 15 8 W 1018,5 10 6 0,0
18.07.2018 17:00:00 22,0 9,7 - - 11 6 WSW 1018,6 10 0 0,0
18.07.2018 16:00:00 21,7 10,4 - - 16 9 W 1018,5 10 0 0,0
18.07.2018 15:00:00 21,7 12,4 - - 13 7 WSW 1018,6 10 0 0,0
18.07.2018 14:00:00 22,1 10,4 - - 9 5 SW 1018,3 10 0 0,0
18.07.2018 13:00:00 21,2 12,2 - - 13 7 SW 1018,4 10 0 0,0
18.07.2018 12:00:00 20,4 12,2 - - 15 8 SW 1018,6 10 12 0,0
18.07.2018 11:00:00 20,3 12,9 - - 11 6 SSW 1018,6 10 6 0,0
18.07.2018 10:00:00 20,1 12,9 20,0 19,2 13 7 SSW 1018,6 10 36 0,0
18.07.2018 09:00:00 18,9 14,5 - - 5 3 S 1018,7 10 6 0,0
18.07.2018 08:00:00 17,0 14,5 - - 2 1 SSW 1018,4 10 0 0,0
18.07.2018 07:00:00 15,9 14,5 - - 8 4 SE 1018,1 10 0 0,0
18.07.2018 06:00:00 15,1 13,8 - - 8 4 SSE 1017,9 10 0 0,0
18.07.2018 05:00:00 15,0 13,4 - - 5 3 ESE 1017,7 10 0 0,0
18.07.2018 04:00:00 15,1 13,2 - - 4 2 ESE 1017,7 10 0 0,0
18.07.2018 03:00:00 14,8 13,6 - - 2 1 SW 1017,9 45 0 0,0
18.07.2018 02:00:00 14,9 13,5 - - 2 1 SE 1017,8 10 0 0,0
18.07.2018 01:00:00 15,0 13,4 - - 4 2 S 1017,9 10 - 0,0
18.07.2018 00:00:00 16,1 13,6 - - 2 1 ENE 1018,0 10 0 0,0
17.07.2018 23:00:00 16,8 13,9 - - 4 2 S 1017,9 10 0 0,0
17.07.2018 22:00:00 17,3 14,1 - - 4 2 SW 1017,7 10 0 0,0
17.07.2018 21:00:00 17,8 13,9 - - 5 3 SW 1017,4 10 0 0,0
17.07.2018 20:00:00 18,5 13,7 - - 9 5 SW 1017,2 10 0 0,0
17.07.2018 19:00:00 18,5 13,8 - - 15 8 SW 1017,0 25 0 0,0
17.07.2018 18:00:00 18,6 12,7 - - 18 10 SSW 1016,9 10 0 0,0
17.07.2018 17:00:00 19,8 12,3 - - 15 8 SSW 1017,0 10 0 0,0
17.07.2018 16:00:00 19,7 11,4 - - 21 11 SSW 1017,0 10 0 0,0
17.07.2018 15:00:00 19,6 11,6 - - 15 8 WSW 1017,1 10 0 0,0
17.07.2018 14:00:00 20,8 9,7 - - 13 7 WSW 1017,0 10 0 0,0
17.07.2018 13:00:00 20,2 10,0 - - 21 11 W 1017,2 10 0 0,0
17.07.2018 12:00:00 20,4 10,7 - - 16 9 W 1016,9 25 0 0,0
17.07.2018 11:00:00 19,6 11,3 - - 16 9 W 1016,7 10 12 0,0
17.07.2018 10:00:00 18,8 11,5 20,5 19,2 13 7 SW 1016,8 10 36 0,0
17.07.2018 09:00:00 17,8 11,9 - - 15 8 WSW 1016,7 10 48 0,0
17.07.2018 08:00:00 16,0 12,4 - - 9 5 WSW 1016,8 10 0 0,0
17.07.2018 07:00:00 13,7 12,0 - - 5 3 SW 1016,6 20 6 0,0
17.07.2018 06:00:00 11,4 10,2 - - 4 2 SSE 1016,1 10 0 0,0
17.07.2018 05:00:00 11,4 9,6 - - 2 1 NNE 1015,8 15 0 0,0
17.07.2018 04:00:00 13,0 10,9 - - 11 6 SW 1015,9 10 0 0,0
17.07.2018 03:00:00 12,3 10,6 - - 8 4 WSW 1015,9 10 0 0,0
17.07.2018 02:00:00 12,7 10,6 - - 9 5 WSW 1016,0 10 0 0,0
17.07.2018 01:00:00 13,1 10,3 - - 11 6 WSW 1016,1 10 - 0,0
17.07.2018 00:00:00 12,7 9,3 - - 5 3 WSW 1016,2 10 0 0,0
16.07.2018 23:00:00 13,3 9,2 - - 5 3 WSW 1016,0 10 0 0,0
16.07.2018 22:00:00 14,8 9,5 - - 13 7 W 1015,7 10 0 0,0
16.07.2018 21:00:00 17,2 11,1 - - 21 11 NW 1015,0 10 36 0,0
16.07.2018 20:00:00 18,4 12,1 - - 22 12 NW 1014,3 12 30 0,0
16.07.2018 19:00:00 18,9 14,2 - - 16 9 NNW 1014,0 10 6 0,0
16.07.2018 18:00:00 18,8 16,0 - - 16 9 NNW 1013,9 8 0 0,2
16.07.2018 17:00:00 18,8 16,7 - - 18 10 WNW 1014,0 3,0 0 1,2
16.07.2018 16:00:00 21,2 15,0 - - 22 12 NW 1013,8 10 24 0,0
16.07.2018 15:00:00 24,8 12,7 - - 24 13 SSW 1013,2 10 54 0,0
16.07.2018 14:00:00 24,7 13,3 - - 16 9 SW 1013,6 10 54 0,0
16.07.2018 13:00:00 24,4 12,9 - - 18 10 S 1014,0 10 30 0,0
16.07.2018 12:00:00 23,9 12,0 - - 13 7 SSW 1014,2 10 0 0,0
16.07.2018 11:00:00 22,2 12,3 - - 13 7 SSW 1014,4 10 6 0,0
16.07.2018 10:00:00 21,0 13,4 21,2 19,2 4 2 SSE 1014,4 10 6 0,0
16.07.2018 09:00:00 19,4 13,3 - - 5 3 SE 1014,4 10 18 0,0
16.07.2018 08:00:00 16,2 13,2 - - 5 3 W 1014,8 16 6 0,0
16.07.2018 07:00:00 13,9 12,1 - - 2 1 ESE 1014,5 10 6 0,0
16.07.2018 06:00:00 12,5 10,9 - - 4 2 E 1014,7 10 0 0,0
16.07.2018 05:00:00 11,4 10,3 - - 4 2 SSE 1014,9 10 0 0,0
16.07.2018 04:00:00 12,7 11,1 - - 2 1 SSE 1015,4 10 0 0,0
16.07.2018 03:00:00 13,1 11,6 - - 4 2 WNW 1015,3 10 0 0,0
16.07.2018 02:00:00 12,9 11,3 - - 4 2 SSE 1015,5 10 0 0,0
16.07.2018 01:00:00 13,9 11,4 - - 2 1 E 1015,7 40 - 0,0
16.07.2018 00:00:00 15,7 11,9 - - 2 1 SSE 1015,9 50 0 0,0
15.07.2018 23:00:00 16,8 12,0 - - 5 3 SW 1016,0 50 0 0,0
15.07.2018 22:00:00 19,0 11,9 - - 9 5 WNW 1015,7 50 0 0,0
15.07.2018 21:00:00 20,8 11,7 - - 11 6 WNW 1015,3 50 18 0,0
15.07.2018 20:00:00 22,7 11,0 - - 18 10 NW 1015,0 50 60 0,0
15.07.2018 19:00:00 24,8 12,1 - - 18 10 WNW 1014,8 50 60 0,0
15.07.2018 18:00:00 26,0 13,4 - - 13 7 NW 1014,9 35 60 0,0
15.07.2018 17:00:00 26,6 12,3 - - 15 8 SW 1015,0 30 60 0,0
15.07.2018 16:00:00 26,7 13,0 - - 11 6 W 1015,2 30 60 0,0
15.07.2018 15:00:00 25,0 12,7 - - 8 4 W 1015,5 50 36 0,0
15.07.2018 14:00:00 25,8 12,8 - - 5 3 SE 1016,0 30 48 0,0
15.07.2018 13:00:00 24,3 12,7 - - 9 5 W 1016,6 35 60 0,0
15.07.2018 12:00:00 23,6 12,1 - - 5 3 SW 1017,1 40 60 0,0
15.07.2018 11:00:00 21,8 13,4 - - 5 3 WSW 1017,3 30 60 0,0
15.07.2018 10:00:00 20,9 14,6 20,7 19,2 4 2 N 1017,6 10 60 0,0
15.07.2018 09:00:00 18,5 14,8 - - 4 2 NNW 1018,1 30 60 0,0
15.07.2018 08:00:00 15,8 13,3 - - 4 2 SW 1018,1 30 60 0,0
15.07.2018 07:00:00 13,4 12,1 - - 4 2 SE 1018,2 25 48 0,0
15.07.2018 06:00:00 11,3 10,6 - - 5 3 SE 1018,0 20 0 0,0
15.07.2018 05:00:00 11,1 10,4 - - 2 1 S 1018,2 17 0 0,0
15.07.2018 04:00:00 11,5 10,4 - - 2 1 SE 1018,4 30 0 0,0
15.07.2018 03:00:00 11,9 10,8 - - 2 1 SSE 1018,5 21 0 0,0
15.07.2018 02:00:00 13,0 11,8 - - 2 1 SSW 1018,7 28 0 0,0
15.07.2018 01:00:00 14,3 12,4 - - 2 1 SSW 1018,8 45 - 0,0
15.07.2018 00:00:00 15,1 12,9 - - 4 2 W 1019,0 50 0 0,0
14.07.2018 23:00:00 16,5 13,4 - - 5 3 W 1019,2 50 0 0,0
14.07.2018 22:00:00 17,8 13,4 - - 11 6 NW 1019,2 50 0 0,0
14.07.2018 21:00:00 19,2 13,4 - - 18 10 WNW 1019,0 50 36 0,0
14.07.2018 20:00:00 21,5 13,7 - - 18 10 WNW 1018,8 45 60 0,0
14.07.2018 19:00:00 23,0 12,6 - - 18 10 NW 1018,7 40 18 0,0
14.07.2018 18:00:00 24,5 11,9 - - 18 10 NW 1018,8 50 24 0,0
14.07.2018 17:00:00 24,2 11,9 - - 15 8 NW 1018,6 45 0 0,0
14.07.2018 16:00:00 24,3 12,0 - - 11 6 WSW 1018,8 40 36 0,0
14.07.2018 15:00:00 25,0 12,6 - - 9 5 SW 1019,2 45 48 0,0
14.07.2018 14:00:00 24,4 12,4 - - 5 3 NW 1020,0 50 48 0,0
14.07.2018 13:00:00 22,7 12,5 - - 8 4 WSW 1020,4 35 48 0,0
14.07.2018 12:00:00 21,3 13,9 - - 8 4 S 1020,8 10 18 0,0
14.07.2018 11:00:00 20,7 13,3 - - 5 3 SSW 1021,3 45 54 0,0
14.07.2018 10:00:00 19,1 13,8 21,0 19,2 4 2 SSE 1021,5 24 30 0,0
14.07.2018 09:00:00 17,3 14,1 - - 4 2 W 1021,6 18 42 0,0
14.07.2018 08:00:00 14,6 13,5 - - 0 0 N 1021,7 8 54 0,0
14.07.2018 07:00:00 12,6 12,0 - - 4 2 S 1021,3 6 0 0,0
14.07.2018 06:00:00 11,6 11,2 - - 4 2 W 1021,3 5 0 0,0
14.07.2018 05:00:00 12,5 11,8 - - 4 2 E 1021,3 8 0 0,0
14.07.2018 04:00:00 12,7 11,9 - - 2 1 E 1021,5 8 0 0,0
14.07.2018 03:00:00 13,1 12,3 - - 9 5 SE 1021,6 8 0 0,0
14.07.2018 02:00:00 14,1 13,1 - - 0 0 N 1021,7 9 0 0,0
14.07.2018 01:00:00 14,6 13,6 - - 2 1 SW 1022,0 9 - 0,0
14.07.2018 00:00:00 14,6 13,6 - - 4 2 S 1022,1 8 0 0,0
13.07.2018 23:00:00 15,7 13,7 - - 2 1 SW 1021,9 17 0 0,0
13.07.2018 22:00:00 17,7 14,6 - - 5 3 W 1021,6 22 0 0,0
13.07.2018 21:00:00 19,3 14,8 - - 11 6 N 1021,3 10 6 0,0
13.07.2018 20:00:00 21,2 13,0 - - 11 6 SW 1021,1 10 48 0,0
13.07.2018 19:00:00 22,1 12,9 - - 16 9 SW 1020,9 10 60 0,0
13.07.2018 18:00:00 22,8 11,8 - - 21 11 SSW 1020,9 10 54 0,0

tt = Température de l'air
td = dewpoint
tt -20cm = Température de l'air -20cm
tt -100cm = Température de l'air -100cm
ff = Vitesse du vent
dd = Direction du vent
ppp = reduced air pressure
vv = visibility
sd = Ensoleillement
rr = Quantités de précipitations

stations d'obs. à proximité